Overview Statistics Trail Chart Weather Telemetry Raw packets
 

This is the latest recevied weather packets stored in our database for station/object K1RFS. If no packets are shown the sender has not sent any weather packets the latest 10 day(s).

<< 108 109 110 111 112 113 114 >>
Time Temp. Humidity Pressure Rain* Wind** Luminosity Snow
1787873950 32.78° C 25% 1004.5 hPa 0 mm - 128 W/m² -
1787873649 32.78° C 25% 1004.4 hPa 0 mm - 226 W/m² -
1787873344 32.22° C 25% 1004.6 hPa 0 mm - 203 W/m² -
1787873042 32.78° C 25% 1004.7 hPa 0 mm - 159 W/m² -
1787872738 32.22° C 25% 1004.7 hPa 0 mm - 264 W/m² -
1787872434 32.22° C 25% 1004.7 hPa 0 mm - 233 W/m² -
1787872134 31.67° C 26% 1004.7 hPa 0 mm - 192 W/m² -
1787871833 32.22° C 27% 1004.7 hPa 0 mm - 112 W/m² -
1787871528 33.33° C 27% 1004.5 hPa 0 mm - 111 W/m² -
1787871224 33.89° C 26% 1004.4 hPa 0 mm - 147 W/m² -
1787870918 33.33° C 25% 1004.4 hPa 0 mm - 316 W/m² -
1787870613 32.78° C 26% 1004.2 hPa 0 mm - 278 W/m² -
1787870308 34.44° C 25% 1004.6 hPa 0 mm - 155 W/m² -
1787870004 35° C 21% 1004.4 hPa 0 mm - 146 W/m² -
1787869703 35° C 21% 1004.4 hPa 0 mm - 193 W/m² -
1787869402 34.44° C 21% 1004.2 hPa 0 mm - 209 W/m² -
1787869097 35° C 20% 1004.2 hPa 0 mm - 231 W/m² -
1787868795 35° C 20% 1004.2 hPa 0 mm - 201 W/m² -
1787868494 34.44° C 21% 1004.2 hPa 0 mm - 224 W/m² -
1787868194 34.44° C 22% 1004.4 hPa 0 mm - 212 W/m² -
1787867889 34.44° C 21% 1004.5 hPa 0 mm - 206 W/m² -
1787867585 35° C 21% 1004.6 hPa 0 mm - 146 W/m² -
1787867284 34.44° C 21% 1004.5 hPa 0 mm - 174 W/m² -
1787866981 35° C 21% 1004.4 hPa 0 mm - 185 W/m² -
1787866675 34.44° C 22% 1004.5 hPa 0 mm - 154 W/m² -

* Rain latest hour (hover to see other rain measurements)
** Current wind speed in m/s (hover to see current wind gust speed)